{"data":{"norad_id":26880,"intl_designator":"2001-033A","name":"USA 159 (DSP 21)","alt_names":[],"object_type":"PAYLOAD","status":"ACTIVE","operator":null,"country":"US","launch_date":"2001-08-06","launch_site_code":"AFETR","launch_vehicle":null,"mission":null,"orbit_class":"UNKNOWN","rcs_meters":null,"size_class":null,"mass_kg":null,"dimensions":null,"purposes":["comms"],"wikipedia_slug":null,"has_3d_model":false,"image_url":null,"decayed_at":null,"tle_current":{"epoch":"2026-06-12T04:56:15.237888Z","epoch_age_seconds":8676217,"freshness":"OLD","line1":"1 26880U 01033A   26163.20573192 -.00000149  00000+0  00000+0 0  9991","line2":"2 26880  12.7773  16.4763 0001377 134.9774 111.3720  0.99197822 32909","mean_motion":0.99197822,"eccentricity":0.0001377,"inclination_deg":12.7773,"raan_deg":16.4763,"arg_perigee_deg":134.9774,"mean_anomaly_deg":111.372,"bstar":0,"rev_number":3290,"period_min":1451.6447750234,"perigee_km":36084.530886031,"apogee_km":36096.226715282,"semimajor_km":42468.515800656,"source":"CELESTRAK","updated_at":"2026-06-13T09:00:33.412656Z"}}}